Location: Meriden
(44.0740°N, 93.3870°W)
Time: 18:14:19
(UTC-05:00)

Amateur Radio Satellites - All Passes

Search period start: 22 May 2017 17:44
Search period end: 23 May 2017 17:44
Location: Meriden, 44.0740°N, 93.3870°W

Satellite Date Start Highest point End Downlink Frequencies (MHz)
Time Altitude Azimuth
NUDT-PHONESAT 22 May 17:53:32 17:56:29 23° 68° (ENE) 17:59:27 437.300
KAITUO 1B 22 May 17:55:23 17:58:28 24° 68° (ENE) 18:01:35 145.475/437.950
CUTE-I 22 May 18:05:03 18:10:04 45° 69° (ENE) 18:15:06 437.470
HO-68 22 May 18:05:08 18:10:18 22° 54° (NE) 18:15:28 435.675
LilacSat-2 22 May 18:09:25 18:13:05 47° 73° (ENE) 18:16:50 437.200
CUBESAT XI-V 22 May 18:10:12 18:14:53 76° 285° (WNW) 18:19:31 437.345
STARS 22 May 18:11:10 18:15:19 41° 99° (E) 18:19:28 437.465
ITUPSAT 1 22 May 18:17:16 18:18:14 11° 304° (NW) 18:19:12 437.325
NO-84 22 May 18:18:17 18:21:32 34° 228° (SW) 18:24:32 435.350 FM
XW-2D 22 May 18:49:22 18:53:05 56° 259° (W) 18:56:53 145.860 - 145.880
XW-2B 22 May 18:57:16 19:00:56 46° 261° (W) 19:04:38 145.730 - 145.750
KKS-1 22 May 19:04:00 19:07:40 26° 294° (WNW) 19:11:20 437.445
SEEDS 22 May 19:05:28 19:08:35 20° 65° (ENE) 19:11:43 437.485
DOVE 4 22 May 19:08:40 19:12:33 25° 265° (W) 19:16:17 437.250
XW-2C 22 May 19:11:01 19:14:26 31° 264° (W) 19:17:53 145.795 - 145.815
XW-2F 22 May 19:13:35 19:16:58 30° 264° (W) 19:20:23 145.980 - 146.000
PCSat 22 May 19:20:05 19:21:49 11° 102° (ESE) 19:23:33 145.827
STRAND 1 22 May 19:21:15 19:23:30 13° 88° (E) 19:25:43 437.568
NUDT-PHONESAT 22 May 19:27:09 19:30:17 26° 265° (W) 19:33:28 437.300
KAITUO 1B 22 May 19:29:17 19:32:24 24° 265° (W) 19:35:33 145.475/437.950
CUBEBUG 2 22 May 19:33:08 19:36:40 28° 68° (ENE) 19:40:16 437.445
XW-2A 22 May 19:35:05 19:38:20 51° 74° (ENE) 19:41:37 145.665 - 145.685
CUTE 1.7 + AOD 2 22 May 19:41:37 19:45:52 73° 76° (ENE) 19:50:11 437.475
ZACube-1 22 May 19:42:21 19:44:23 13° 61° (ENE) 19:46:27 437.345
LilacSat-2 22 May 19:45:47 19:47:39 13° 270° (W) 19:49:32 437.200
CUTE-I 22 May 19:45:58 19:50:17 25° 266° (W) 19:54:39 437.470
STARS 22 May 19:48:08 19:51:24 21° 296° (WNW) 19:54:39 437.465
HO-68 22 May 19:49:59 19:57:11 85° 254° (WSW) 20:04:26 435.675
UWE-3 22 May 19:53:03 19:56:36 28° 68° (ENE) 20:00:14 435.000/436.395/437.385
AAUSAT CUBESAT 2 22 May 20:17:42 20:21:47 55° 73° (ENE) 20:25:54 437.432
SEEDS 22 May 20:40:00 20:44:00 39° 262° (W) 20:48:02 437.485
Oscar 11 22 May 20:43:39 20:47:44 42° 71° (ENE) 20:51:51 .
EO-88 22 May 20:56:42 20:57:08 10° 62° (ENE) 20:57:34 145.990 - 145.960
STRAND 1 22 May 20:58:08 21:03:18 82° 286° (WNW) 21:08:27 437.568
PCSat 22 May 20:58:53 21:04:18 82° 119° (ESE) 21:09:46 145.827
AO-73 22 May 21:04:38 21:08:48 86° 76° (ENE) 21:13:07 145.935
CUBEBUG 2 22 May 21:09:47 21:13:16 26° 265° (W) 21:16:48 437.445
ZACube-1 22 May 21:15:59 21:20:07 64° 259° (W) 21:24:22 437.345
DELFI C3 22 May 21:17:58 21:21:21 27° 69° (ENE) 21:24:44 145.870
CUTE 1.7 + AOD 2 22 May 21:21:12 21:22:12 11° 272° (W) 21:23:13 437.475
Tancredo 1 22 May 21:22:59 21:24:01 11° 132° (SE) 21:25:04 437.200
UWE-3 22 May 21:29:31 21:33:02 26° 266° (W) 21:36:37 435.000/436.395/437.385
HO-68 22 May 21:41:51 21:45:54 16° 272° (W) 21:49:59 435.675
M-CUBED/EXP-1 PRIME 22 May 21:54:12 21:57:35 75° 108° (ESE) 22:00:50 437.505
FO-29 22 May 21:55:09 21:59:01 16° 90° (E) 22:03:06 435.910
AAUSAT CUBESAT 2 22 May 21:55:29 21:57:35 13° 270° (W) 21:59:42 437.432
Oscar 11 22 May 22:20:57 22:24:03 19° 268° (W) 22:27:10 .
EO-88 22 May 22:26:40 22:30:17 65° 260° (W) 22:33:56 145.990 - 145.960
TIGRISAT 22 May 22:34:47 22:38:33 25° 95° (E) 22:42:22 435.000
STRAND 1 22 May 22:39:38 22:41:39 12° 304° (WNW) 22:43:40 437.568
PCSat 22 May 22:44:22 22:48:22 20° 320° (NW) 22:52:24 145.827
ISS 22 May 22:45:26 22:48:37 47° 143° (SE) 22:51:48 437.550
DELFI C3 22 May 22:52:44 22:56:05 25° 265° (W) 22:59:26 145.870
Tancredo 1 22 May 22:56:16 22:59:21 89° 106° (ESE) 23:02:26 437.200
PRISM 22 May 22:57:35 23:01:36 56° 101° (E) 23:05:35 437.425
UNISAT 6 22 May 23:04:41 23:09:10 54° 100° (E) 23:13:42 437.425
VELOX 1 22 May 23:12:27 23:13:20 11° 58° (ENE) 23:14:14 145.980
LO-87 22 May 23:24:27 23:28:00 81° 76° (ENE) 23:31:33 145.935 - 145.965
AIST 2D 22 May 23:29:10 23:30:04 11° 90° (E) 23:30:58 435.315
ESTCUBE 1 22 May 23:29:53 23:34:18 54° 72° (ENE) 23:38:45 437.505/2401.250
SPROUT 22 May 23:37:38 23:40:27 18° 64° (ENE) 23:43:16 437.525
FO-29 22 May 23:38:24 23:44:36 87° 285° (WNW) 23:51:37 435.910
SO-50 22 May 23:47:23 23:51:45 44° 118° (ESE) 23:56:04 436.795
QB50P2 22 May 23:50:24 23:52:09 12° 90° (E) 23:53:54 145.880/145.840
DX 1 23 May 00:01:08 00:03:01 13° 60° (ENE) 00:04:55 434.975-435.025
TIGRISAT 23 May 00:11:09 00:15:17 35° 291° (WNW) 00:19:29 435.000
ISS 23 May 00:22:10 00:25:13 33° 341° (NNW) 00:28:15 437.550
EO-79 23 May 00:27:33 00:31:15 28° 96° (E) 00:34:56 145.935-145.965
Tancredo 1 23 May 00:32:50 00:35:26 24° 347° (NNW) 00:38:01 437.200
PRISM 23 May 00:34:16 00:36:25 14° 298° (WNW) 00:38:36 437.425
UNISAT 6 23 May 00:42:27 00:45:28 18° 297° (WNW) 00:48:32 437.425
VELOX 1 23 May 00:44:38 00:49:05 88° 68° (ENE) 00:53:31 145.980
AIST 2D 23 May 01:00:06 01:03:35 50° 286° (WNW) 01:07:02 435.315
ESTCUBE 1 23 May 01:08:35 01:11:26 16° 269° (W) 01:14:16 437.505/2401.250
50 SAT 23 May 01:10:02 01:13:31 85° 259° (W) 01:16:59 437.505
YUBILEINY 23 May 01:10:33 01:17:54 32° 83° (E) 01:25:18 435.215
RS-15 23 May 01:11:41 01:16:54 14° 93° (E) 01:22:10 29.354- 29.394
SPROUT 23 May 01:11:55 01:16:00 46° 261° (W) 01:20:07 437.525
NANOSAT C BR1 23 May 01:15:15 01:19:31 86° 103° (ESE) 01:23:47 145.865
POLYITAN 1 23 May 01:15:39 01:19:57 85° 280° (W) 01:24:13 437.675
QB50P2 23 May 01:24:08 01:28:21 63° 286° (WNW) 01:32:34 145.880/145.840
FO-29 23 May 01:25:17 01:29:00 17° 302° (WNW) 01:32:58 435.910
DUCHIFAT 1 23 May 01:28:23 01:32:37 76° 286° (WNW) 01:36:50 145.980
SO-50 23 May 01:28:26 01:32:22 27° 317° (NW) 01:36:15 436.795
DX 1 23 May 01:34:17 01:38:37 74° 257° (WSW) 01:42:59 434.975-435.025
UKube-1 23 May 01:35:23 01:39:42 79° 75° (ENE) 01:44:02 .
ISS 23 May 01:59:46 02:02:22 21° 1° (N) 02:04:57 437.550
EO-79 23 May 02:03:21 02:06:56 27° 293° (WNW) 02:10:32 145.935-145.965
BUGSAT 1 23 May 02:03:49 02:07:56 83° 104° (ESE) 02:12:05 437.445
ITUPSAT 1 23 May 02:08:31 02:11:46 19° 62° (ENE) 02:15:03 437.325
Tancredo 1 23 May 02:09:30 02:11:55 20° 7° (N) 02:14:20 437.200
Oscar 19 23 May 02:22:50 02:27:47 44° 99° (E) 02:32:40 437.125/150
BEESAT 23 May 02:43:34 02:47:57 39° 69° (ENE) 02:52:22 436.000
NANOSAT C BR1 23 May 02:53:50 02:54:34 10° 301° (WNW) 02:55:16 145.865
MOZHAYETS 4 23 May 03:03:13 03:07:17 32° 68° (ENE) 03:11:22
YUBILEINY 23 May 03:05:36 03:14:09 59° 284° (WNW) 03:22:50 435.215
Gurwin Techsat 1B 23 May 03:05:58 03:11:17 66° 102° (ESE) 03:16:33 435.225
RS-15 23 May 03:14:51 03:26:38 63° 115° (ESE) 03:38:43 29.354- 29.394
ITAMSAT 1 23 May 03:17:29 03:19:25 12° 88° (E) 03:21:20 435.822/435.867
AO-7 23 May 03:26:18 03:32:06 20° 90° (E) 03:37:51 .
ISS 23 May 03:36:25 03:39:30 36° 21° (NNE) 03:42:34 437.550
CUBESAT XI-V 23 May 03:39:33 03:42:19 16° 61° (ENE) 03:45:04 437.345
BUGSAT 1 23 May 03:42:09 03:42:40 10° 300° (WNW) 03:43:10 437.445
ITUPSAT 1 23 May 03:44:30 03:49:10 56° 259° (W) 03:53:54 437.325
Tancredo 1 23 May 03:45:09 03:48:10 52° 27° (NNE) 03:51:10 437.200
Oscar 19 23 May 04:02:39 04:06:51 26° 296° (WNW) 04:11:03 437.125/150
PCSat 23 May 04:02:52 04:06:38 19° 39° (NE) 04:10:24 145.827
BEESAT 23 May 04:21:57 04:25:49 24° 266° (W) 04:29:43 436.000
KKS-1 23 May 04:26:28 04:30:32 37° 69° (ENE) 04:34:37 437.445
MOZHAYETS 4 23 May 04:40:28 04:44:25 28° 265° (W) 04:48:24
O/OREOS (USA 219) 23 May 04:40:51 04:44:43 27° 104° (ESE) 04:48:36 437.305
Gurwin Techsat 1B 23 May 04:47:04 04:50:42 19° 300° (WNW) 04:54:19 435.225
ITAMSAT 1 23 May 04:54:18 04:59:33 88° 283° (WNW) 05:04:46 435.822/435.867
STARS 23 May 05:08:54 05:13:02 44° 71° (ENE) 05:17:12 437.465
YUBILEINY 23 May 05:09:38 05:13:13 13° 308° (NW) 05:16:49 435.215
ISS 23 May 05:12:55 05:16:02 40° 219° (SW) 05:19:06 437.550
CUBESAT XI-V 23 May 05:14:27 05:19:08 67° 259° (WSW) 05:23:51 437.345
AO-7 23 May 05:17:28 05:25:52 89° 289° (WNW) 05:34:15 .
Tancredo 1 23 May 05:21:20 05:23:44 21° 224° (SW) 05:26:07 437.200
AO-85 23 May 05:26:34 05:29:48 22° 114° (ESE) 05:32:55 145.980
RS-15 23 May 05:27:53 05:39:40 51° 320° (NW) 05:51:39 29.354- 29.394
PCSat 23 May 05:45:21 05:50:49 88° 53° (NE) 05:56:15 145.827
KKS-1 23 May 06:03:42 06:07:11 23° 266° (W) 06:10:42 437.445
O/OREOS (USA 219) 23 May 06:19:49 06:24:00 34° 301° (WNW) 06:28:12 437.305
XW-2D 23 May 06:21:42 06:23:44 14° 91° (E) 06:25:44 145.860 - 145.880
CUTE-I 23 May 06:21:42 06:24:49 15° 90° (E) 06:27:55 437.470
XW-2B 23 May 06:29:09 06:31:37 16° 92° (E) 06:34:04 145.730 - 145.750
ITAMSAT 1 23 May 06:35:47 06:38:14 14° 303° (WNW) 06:40:42 435.822/435.867
STRAND 1 23 May 06:37:51 06:41:46 23° 63° (ENE) 06:45:41 437.568
SO-50 23 May 06:38:05 06:40:07 13° 31° (NNE) 06:42:09 436.795
XW-2C 23 May 06:42:05 06:45:12 23° 94° (E) 06:48:18 145.795 - 145.815
XW-2F 23 May 06:44:11 06:47:19 23° 94° (E) 06:50:24 145.980 - 146.000
STARS 23 May 06:46:34 06:49:35 18° 267° (W) 06:52:38 437.465
BEESAT 2 23 May 06:52:45 06:55:35 19° 112° (ESE) 06:58:28 435.950
NUDT-PHONESAT 23 May 06:55:43 06:58:53 25° 95° (E) 07:02:02 437.300
KAITUO 1B 23 May 06:58:30 07:01:49 27° 96° (E) 07:05:05 145.475/437.950
DOVE 4 23 May 07:04:41 07:08:51 76° 103° (ESE) 07:13:03 437.250
AO-85 23 May 07:06:06 07:09:59 39° 311° (NW) 07:13:44 145.980
M-CUBED/EXP-1 PRIME 23 May 07:08:32 07:10:46 14° 58° (ENE) 07:12:54 437.505
AO-7 23 May 07:11:26 07:17:36 24° 310° (NW) 07:23:48 .
LilacSat-2 23 May 07:15:05 07:18:57 60° 101° (E) 07:22:46 437.200
HO-68 23 May 07:17:48 07:22:13 17° 88° (E) 07:26:36 435.675
BEESAT 3 23 May 07:20:45 07:24:43 81° 306° (NW) 07:28:45 437.485
CUTE 1.7 + AOD 2 23 May 07:27:11 07:28:37 11° 88° (E) 07:30:03 437.475
PCSat 23 May 07:30:51 07:33:25 14° 257° (WSW) 07:35:58 145.827
RS-15 23 May 07:45:52 07:56:06 28° 352° (N) 08:06:15 29.354- 29.394
XW-2D 23 May 07:54:27 07:58:10 46° 287° (WNW) 08:01:51 145.860 - 145.880
CUTE-I 23 May 08:00:04 08:05:24 72° 287° (WNW) 08:10:43 437.470
XW-2B 23 May 08:02:21 08:05:58 39° 288° (WNW) 08:09:34 145.730 - 145.750
STRAND 1 23 May 08:15:42 08:20:36 49° 260° (W) 08:25:35 437.568
XW-2C 23 May 08:16:03 08:19:22 27° 291° (WNW) 08:22:39 145.795 - 145.815
SO-50 23 May 08:17:02 08:21:31 60° 52° (NE) 08:25:59 436.795
XW-2F 23 May 08:18:08 08:21:25 27° 291° (WNW) 08:24:40 145.980 - 146.000
SEEDS 23 May 08:22:15 08:25:58 29° 95° (E) 08:29:38 437.485
XW-2A 23 May 08:27:55 08:31:14 44° 99° (E) 08:34:33 145.665 - 145.685
BEESAT 2 23 May 08:29:13 08:33:02 44° 310° (NW) 08:36:56 435.950
NUDT-PHONESAT 23 May 08:29:37 08:32:43 24° 292° (WNW) 08:35:47 437.300
KAITUO 1B 23 May 08:32:40 08:35:41 22° 292° (WNW) 08:38:41 145.475/437.950
M-CUBED/EXP-1 PRIME 23 May 08:40:28 08:44:48 66° 253° (WSW) 08:48:51 437.505
DOVE 4 23 May 08:44:57 08:45:58 11° 300° (WNW) 08:46:59 437.250
LilacSat-2 23 May 08:51:08 08:52:43 12° 297° (WNW) 08:54:19 437.200
AO-73 23 May 08:51:55 08:54:44 16° 91° (E) 08:57:33 145.935
CUBEBUG 2 23 May 08:57:33 09:02:00 55° 100° (E) 09:06:34 437.445
CUTE 1.7 + AOD 2 23 May 09:00:39 09:04:54 68° 286° (WNW) 09:09:08 437.475
BEESAT 3 23 May 09:01:01 09:02:58 13° 325° (NW) 09:04:56 437.485
ZACube-1 23 May 09:02:54 09:06:30 23° 93° (E) 09:10:07 437.345
HO-68 23 May 09:03:36 09:10:52 89° 108° (ESE) 09:18:05 435.675
UWE-3 23 May 09:16:12 09:20:39 53° 99° (E) 09:25:11 435.000/436.395/437.385
AAUSAT CUBESAT 2 23 May 09:33:28 09:37:39 86° 108° (ESE) 09:41:45 437.432
TIGRISAT 23 May 09:35:09 09:38:37 25° 66° (ENE) 09:42:08 435.000
NO-84 23 May 09:35:59 09:39:11 20° 127° (SE) 09:42:20 435.350 FM
CUTE-I 23 May 09:42:52 09:44:30 11° 305° (NW) 09:46:08 437.470
PRISM 23 May 09:47:50 09:51:49 48° 72° (ENE) 09:55:49 437.425
FO-29 23 May 09:53:28 09:58:21 44° 69° (ENE) 10:03:20 435.910
SEEDS 23 May 09:58:02 10:01:33 26° 293° (WNW) 10:05:02 437.485
SO-50 23 May 09:58:37 10:01:31 17° 249° (WSW) 10:04:25 436.795
XW-2A 23 May 10:02:11 10:03:36 12° 296° (WNW) 10:05:01 145.665 - 145.685
RS-15 23 May 10:02:16 10:13:25 37° 27° (NNE) 10:24:11 29.354- 29.394
UNISAT 6 23 May 10:04:52 10:09:01 54° 73° (ENE) 10:13:15 437.425
Oscar 11 23 May 10:04:58 10:09:20 72° 101° (E) 10:13:41 .
AO-73 23 May 10:26:51 10:31:16 55° 287° (WNW) 10:35:43 145.935
DELFI C3 23 May 10:27:37 10:31:14 34° 97° (E) 10:34:49 145.870
CUBEBUG 2 23 May 10:35:16 10:38:13 17° 296° (WNW) 10:41:14 437.445
ZACube-1 23 May 10:38:41 10:42:52 38° 290° (WNW) 10:47:06 437.345
QB50P2 23 May 10:44:59 10:46:38 12° 61° (ENE) 10:48:17 145.880/145.840
HO-68 23 May 10:52:40 10:57:41 21° 307° (NW) 11:02:42 435.675
UWE-3 23 May 10:53:40 10:56:43 18° 296° (WNW) 10:59:49 435.000/436.395/437.385
TIGRISAT 23 May 11:11:23 11:15:10 31° 264° (W) 11:19:03 435.000
NO-84 23 May 11:12:08 11:16:29 72° 324° (NW) 11:20:38 435.350 FM
YUBILEINY 23 May 11:18:30 11:24:00 17° 57° (ENE) 11:29:29 435.215
EO-79 23 May 11:21:25 11:24:52 26° 67° (ENE) 11:28:21 145.935-145.965
PRISM 23 May 11:24:54 11:27:21 15° 268° (W) 11:29:50 437.425
EO-88 23 May 11:27:29 11:31:08 60° 285° (WNW) 11:34:45 145.990 - 145.960
AIST 2D 23 May 11:35:20 11:38:48 67° 76° (ENE) 11:42:19 435.315
FO-29 23 May 11:39:41 11:43:45 23° 267° (W) 11:47:51 435.910
Oscar 11 23 May 11:42:56 11:44:53 13° 299° (WNW) 11:46:49 .
UNISAT 6 23 May 11:43:46 11:46:06 14° 270° (W) 11:48:27 437.425
DELFI C3 23 May 12:02:54 12:05:48 20° 294° (WNW) 12:08:40 145.870
Oscar 19 23 May 12:06:05 12:07:40 11° 55° (NE) 12:09:15 437.125/150
NANOSAT C BR1 23 May 12:08:18 12:12:28 75° 75° (ENE) 12:16:39 145.865
POLYITAN 1 23 May 12:09:12 12:13:23 85° 74° (ENE) 12:17:36 437.675
RS-15 23 May 12:15:31 12:27:52 86° 56° (NE) 12:39:35 29.354- 29.394
QB50P2 23 May 12:17:40 12:21:50 72° 258° (WSW) 12:26:04 145.880/145.840
DUCHIFAT 1 23 May 12:21:07 12:25:16 88° 249° (WSW) 12:29:28 145.980
LO-87 23 May 12:23:10 12:26:44 83° 103° (ESE) 12:30:17 145.935 - 145.965
VELOX 1 23 May 12:34:30 12:36:58 15° 91° (E) 12:39:26 145.980
Gurwin Techsat 1B 23 May 12:51:00 12:54:30 18° 60° (ENE) 12:58:00 435.225
NO-84 23 May 12:51:16 12:54:38 23° 342° (NNW) 12:57:51 435.350 FM
BUGSAT 1 23 May 12:54:36 12:58:34 68° 74° (ENE) 13:02:34 437.445
SPROUT 23 May 12:56:14 12:59:46 25° 95° (E) 13:03:19 437.525
EO-79 23 May 12:56:53 13:00:32 29° 264° (W) 13:04:13 145.935-145.965
ESTCUBE 1 23 May 12:57:19 13:01:51 84° 286° (WNW) 13:06:21 437.505/2401.250
YUBILEINY 23 May 13:13:37 13:22:30 76° 80° (E) 13:31:20 435.215
DX 1 23 May 13:21:57 13:24:45 17° 92° (E) 13:27:32 434.975-435.025
UKube-1 23 May 13:23:07 13:24:31 11° 89° (E) 13:25:55 .
Oscar 19 23 May 13:40:53 13:46:04 75° 73° (ENE) 13:51:17 437.125/150
AO-85 23 May 13:55:08 13:58:42 30° 47° (NE) 14:02:25 145.980
BEESAT 3 23 May 13:59:49 14:02:03 14° 37° (NE) 14:04:17 437.485
50 SAT 23 May 14:04:20 14:07:46 80° 102° (ESE) 14:11:09 437.505
VELOX 1 23 May 14:09:28 14:13:45 55° 288° (WNW) 14:18:02 145.980
AO-7 23 May 14:26:40 14:33:53 35° 56° (NE) 14:41:09 .
Gurwin Techsat 1B 23 May 14:28:36 14:33:52 70° 257° (WSW) 14:39:12 435.225
RS-15 23 May 14:29:25 14:38:49 28° 259° (W) 14:47:55 29.354- 29.394
NO-84 23 May 14:30:42 14:33:21 17° 3° (N) 14:35:52 435.350 FM
SPROUT 23 May 14:31:55 14:35:41 31° 291° (WNW) 14:39:26 437.525
BUGSAT 1 23 May 14:34:12 14:34:23 10° 271° (W) 14:34:34 437.445
ITAMSAT 1 23 May 14:35:52 14:39:54 23° 62° (ENE) 14:43:55 435.822/435.867
ESTCUBE 1 23 May 14:37:12 14:37:53 10° 302° (WNW) 14:38:34 437.505/2401.250
O/OREOS (USA 219) 23 May 14:48:38 14:53:10 67° 64° (ENE) 14:57:38 437.305
UKube-1 23 May 14:56:43 15:01:01 69° 286° (WNW) 15:05:16 .
DX 1 23 May 14:57:01 15:01:12 48° 289° (WNW) 15:05:20 434.975-435.025
BEESAT 2 23 May 15:08:05 15:11:21 22° 43° (NE) 15:14:35 435.950
YUBILEINY 23 May 15:11:44 15:18:20 24° 281° (W) 15:24:56 435.215
Oscar 19 23 May 15:23:08 15:25:57 15° 271° (W) 15:28:46 437.125/150
AO-85 23 May 15:35:31 15:39:03 29° 244° (WSW) 15:42:44 145.980
BEESAT 3 23 May 15:36:11 15:40:14 89° 238° (WSW) 15:44:12 437.485
ITUPSAT 1 23 May 15:43:31 15:47:51 32° 97° (E) 15:52:10 437.325
NO-84 23 May 16:08:28 16:11:54 31° 25° (NNE) 16:15:04 435.350 FM
ITAMSAT 1 23 May 16:14:02 16:19:02 49° 260° (W) 16:24:04 435.822/435.867
AO-7 23 May 16:18:05 16:26:14 61° 256° (WSW) 16:34:28 .
BEESAT 23 May 16:19:13 16:24:02 75° 103° (ESE) 16:28:49 436.000
O/OREOS (USA 219) 23 May 16:29:57 16:31:57 13° 262° (W) 16:33:57 437.305
MOZHAYETS 4 23 May 16:32:59 16:37:36 60° 101° (E) 16:42:11
DOVE 4 23 May 16:37:40 16:38:40 11° 60° (ENE) 16:39:40 437.250
BEESAT 2 23 May 16:45:25 16:49:19 45° 242° (WSW) 16:53:09 435.950
CUBESAT XI-V 23 May 17:09:52 17:13:51 27° 94° (E) 17:17:46 437.345
XW-2B 23 May 17:13:36 17:14:29 11° 62° (ENE) 17:15:22 145.730 - 145.750
ITUPSAT 1 23 May 17:21:25 17:25:36 30° 294° (WNW) 17:29:45 437.325
XW-2C 23 May 17:25:37 17:27:49 15° 64° (ENE) 17:30:02 145.795 - 145.815
XW-2F 23 May 17:27:21 17:29:31 15° 64° (ENE) 17:31:42 145.980 - 146.000
NUDT-PHONESAT 23 May 17:37:16 17:39:28 15° 65° (ENE) 17:41:40 437.300
